Location: Gleizolles
(44.4833°N, 6.7667°E)
Time: 01:39:25
(UTC+00:00)

S-56A Canister/Altair - Pass Details

Date: 25 June 2024
Orbit: 638 x 2488 km, 38.9° (Epoch: 24 July)

Event Time Altitude Azimuth Distance (km) Brightness Sun altitude
Rises 02:24:24 0° 281° (W) 5,502 11.6 -12.0°
Reaches altitude 10° 02:28:33 10° 270° (W) 4,726 11.2 -11.5°
Maximum altitude 02:38:56 27° 221° (SW) 3,868 10.5 -10.3°
Drops below altitude 10° 02:50:11 10° 172° (S) 5,105 11.4 -8.9°
Sets 02:54:58 0° 161° (SSE) 6,012 11.8 -8.3°
